{"data":{"norad_id":66563,"epoch":"2026-05-24T19:36:42.159168Z","epoch_age_seconds":101146,"freshness":"FRESH","line1":"1 66563U 25268G   26144.81715462  .00017476  00000+0  64286-3 0  9993","line2":"2 66563  43.0036 277.0377 0001796 280.7163  79.3487 15.27590763 29607","mean_motion":15.27590763,"eccentricity":0.0001796,"inclination_deg":43.0036,"raan_deg":277.0377,"arg_perigee_deg":280.7163,"mean_anomaly_deg":79.3487,"bstar":0.00064286,"rev_number":2960,"period_min":94.266084535103,"perigee_km":481.78460470023,"apogee_km":484.24913116959,"semimajor_km":6861.1538679349,"source":"CELESTRAK","updated_at":"2026-05-25T13:38:21.257241Z"}}